PGT6275 LTAI-EPLB

Flight info

Callsign PGT6275
Flight time N/A
Altitude 38000
Route EKSEN1K/18L EKSEN UL610 YAA DCT RIXEN DCT ARGES DCT BOKDO DCT KENIN DCT PODAN/N0446F390 DCT GAVDU
Aircraft A20N/M-SDE2E3FGHIJ1RWXY/LB1

Departure

Time N/A
Airport Antalya International Airport (LTAI)

Arrival

Time 2026-04-26 17:47
Airport Lublin Airport (EPLB)
Time Latitude Longitude Altitude Speed Heading
2026-04-26 17:24 49.83616 21.62199 38191 ft 430 kts
2026-04-26 17:24 49.89378 21.64711 38192 ft 430 kts
2026-04-26 17:25 49.95148 21.67235 38190 ft 430 kts
2026-04-26 17:25 50.00908 21.69761 38188 ft 430 kts
2026-04-26 17:26 50.06659 21.72290 38182 ft 429 kts
2026-04-26 17:26 50.12363 21.74804 38185 ft 429 kts
2026-04-26 17:27 50.18099 21.77340 37938 ft 425 kts
2026-04-26 17:27 50.20930 21.78596 37480 ft 422 kts
2026-04-26 17:27 50.23748 21.79848 36991 ft 417 kts
2026-04-26 17:28 50.26516 21.81079 36649 ft 410 kts
2026-04-26 17:28 50.29247 21.82295 36089 ft 405 kts
2026-04-26 17:28 50.31940 21.83493 35105 ft 403 kts
2026-04-26 17:28 50.34481 21.84602 33678 ft 410 kts
2026-04-26 17:29 50.37246 21.85774 32178 ft 414 kts
2026-04-26 17:29 50.39098 21.86538 31213 ft 416 kts
2026-04-26 17:29 50.42858 21.88044 29186 ft 417 kts
2026-04-26 17:29 50.45680 21.89141 27643 ft 416 kts
2026-04-26 17:30 50.48484 21.90206 26194 ft 413 kts
2026-04-26 17:30 50.51271 21.91240 24828 ft 409 kts
2026-04-26 17:30 50.54031 21.92206 23493 ft 403 kts
2026-04-26 17:30 50.56749 21.93208 22001 ft 402 kts 10°
2026-04-26 17:31 50.59368 21.94691 20763 ft 396 kts 14°
2026-04-26 17:31 50.61865 21.96267 19652 ft 386 kts 14°
2026-04-26 17:31 50.64315 21.97854 18578 ft 376 kts 14°
2026-04-26 17:31 50.66720 21.99337 17371 ft 366 kts 13°
2026-04-26 17:32 50.69080 22.00692 16239 ft 356 kts 12°
2026-04-26 17:32 50.71405 22.01825 15197 ft 344 kts
2026-04-26 17:32 50.73694 22.02722 14281 ft 333 kts
2026-04-26 17:32 50.75934 22.03597 13402 ft 322 kts
2026-04-26 17:33 50.78073 22.04450 12572 ft 312 kts
2026-04-26 17:33 50.80138 22.05291 11816 ft 302 kts
2026-04-26 17:33 50.82138 22.06121 11094 ft 293 kts
2026-04-26 17:34 50.85842 22.08307 9716 ft 289 kts 30°
2026-04-26 17:34 50.87187 22.10720 9024 ft 299 kts 56°
2026-04-26 17:34 50.87932 22.13815 8359 ft 303 kts 68°
2026-04-26 17:34 50.88541 22.16979 7846 ft 291 kts 67°
2026-04-26 17:35 50.89192 22.19915 7680 ft 282 kts 60°
2026-04-26 17:35 50.90064 22.22701 7675 ft 280 kts 55°
2026-04-26 17:35 50.91034 22.25374 7676 ft 279 kts 53°
2026-04-26 17:35 50.91953 22.28102 7686 ft 285 kts 61°
2026-04-26 17:36 50.92576 22.31107 7669 ft 287 kts 68°
2026-04-26 17:36 50.93126 22.34128 7419 ft 284 kts 68°
2026-04-26 17:36 50.93677 22.37127 7052 ft 283 kts 68°
2026-04-26 17:36 50.94227 22.40121 6650 ft 282 kts 68°
2026-04-26 17:37 50.94774 22.43105 6220 ft 281 kts 68°
2026-04-26 17:37 50.95314 22.46065 5830 ft 279 kts 68°
2026-04-26 17:37 50.95853 22.49025 5412 ft 279 kts 69°
2026-04-26 17:38 50.96922 22.54905 4693 ft 275 kts 69°
2026-04-26 17:38 50.97444 22.57801 4629 ft 276 kts 69°
2026-04-26 17:38 50.97976 22.60731 4622 ft 275 kts 68°
2026-04-26 17:38 50.98789 22.63386 4869 ft 262 kts 48°
2026-04-26 17:39 51.00010 22.65554 5224 ft 263 kts 36°
2026-04-26 17:39 51.01377 22.67418 5073 ft 259 kts 32°
2026-04-26 17:39 51.02786 22.69199 5059 ft 260 kts 32°
2026-04-26 17:39 51.04198 22.70989 5060 ft 259 kts 33°
2026-04-26 17:40 51.05611 22.72822 5063 ft 259 kts 33°
2026-04-26 17:40 51.06064 22.73419 5061 ft 259 kts 33°
2026-04-26 17:40 51.08369 22.76489 5058 ft 259 kts 34°
2026-04-26 17:40 51.09745 22.78336 5061 ft 259 kts 34°
2026-04-26 17:41 51.10673 22.79586 5060 ft 259 kts 34°
2026-04-26 17:41 51.12034 22.81420 5054 ft 259 kts 34°
2026-04-26 17:41 51.13380 22.83242 5057 ft 247 kts 34°
2026-04-26 17:41 51.14645 22.84964 5057 ft 232 kts 33°
2026-04-26 17:42 51.15892 22.86646 5052 ft 236 kts 33°
2026-04-26 17:42 51.17089 22.88438 5043 ft 239 kts 42°
2026-04-26 17:42 51.18048 22.90584 4974 ft 234 kts 49°
2026-04-26 17:42 51.19178 22.92187 4860 ft 206 kts 15°
2026-04-26 17:43 51.20475 22.92422 4779 ft 177 kts 341°
2026-04-26 17:43 51.21461 22.91472 4498 ft 164 kts 318°
2026-04-26 17:43 51.22306 22.90295 4145 ft 159 kts 319°
2026-04-26 17:43 51.23153 22.89184 3734 ft 153 kts 320°
2026-04-26 17:44 51.23991 22.88144 3169 ft 151 kts 322°
2026-04-26 17:44 51.24836 22.87226 2715 ft 140 kts 323°
2026-04-26 17:44 51.25465 22.86205 2464 ft 121 kts 303°
2026-04-26 17:44 51.25736 22.84932 2294 ft 125 kts 283°
2026-04-26 17:45 51.25722 22.83522 2123 ft 129 kts 270°
2026-04-26 17:45 51.25560 22.82098 1943 ft 131 kts 265°
2026-04-26 17:45 51.25353 22.80660 1743 ft 134 kts 264°
2026-04-26 17:45 51.25147 22.79216 1515 ft 134 kts 264°
2026-04-26 17:46 51.24936 22.77752 1289 ft 134 kts 263°
2026-04-26 17:46 51.24714 22.76299 1054 ft 135 kts 263°
2026-04-26 17:46 51.24512 22.74827 872 ft 136 kts 263°
2026-04-26 17:46 51.24304 22.73384 717 ft 132 kts 263°
2026-04-26 17:47 51.24113 22.72014 642 ft 114 kts 260°
2026-04-26 17:47 51.24026 22.71401 647 ft 56 kts 252°
2026-04-26 17:47 51.23968 22.70990 648 ft 27 kts 260°
2026-04-26 17:47 51.23951 22.70768 645 ft 10 kts 265°
2026-04-26 17:48 51.23941 22.70748 647 ft 0 kts 159°
2026-04-26 17:48 51.23940 22.70756 648 ft 4 kts 119°
2026-04-26 17:48 51.23959 22.70986 647 ft 31 kts 75°
2026-04-26 17:48 51.23993 22.71230 649 ft 13 kts 89°
2026-04-26 17:49 51.23952 22.71373 649 ft 16 kts 150°
2026-04-26 17:49 51.23840 22.71416 653 ft 17 kts 167°
2026-04-26 17:49 51.23726 22.71457 655 ft 12 kts 167°
2026-04-26 17:49 51.23692 22.71469 654 ft 2 kts 167°
2026-04-26 17:50 51.23661 22.71480 655 ft 6 kts 167°
2026-04-26 17:50 51.23648 22.71485 654 ft 2 kts 166°
2026-04-26 17:50 51.23642 22.71487 654 ft 0 kts 166°